Location: Wyoming Skies Observatory
(43.6910°N, 108.3105°W)
Time: 20:03:50
(UTC-06:00)

Daily predictions for brighter satellites

Satellite Brightness Start Highest point End
(mag) Time Altitude Azimuth Time Altitude Azimuth Time Altitude Azimuth
SMAP 3.5 18:50:19 10° S 18:54:57 69° WSW 18:59:36 10° NNW
USA 116 4.4 18:49:59 10° NNE 18:55:02 77° ESE 19:00:23 10° S
Meteor 2-21 Rocket 4.5 18:50:30 10° S 18:56:29 62° E 19:02:28 10° NNE
Cosmos 2221 4.2 18:56:06 10° ESE 18:58:12 13° E 19:00:19 10° NE
Cosmos 1076 Rocket 4.4 18:54:19 10° NNW 18:58:31 55° W 19:02:39 10° S
Cosmos 2366 rocket 4.2 18:53:01 10° SSE 18:58:59 50° E 19:04:56 10° NNE
Cosmos 1500 Rocket 4.3 18:56:10 10° NNE 19:00:03 30° ENE 19:03:53 10° SE
Cosmos 1315 Rocket 4.1 19:01:33 10° NNE 19:04:41 21° ENE 19:07:50 10° ESE
METEOR-M 4.1 19:01:25 10° SSE 19:06:42 66° ENE 19:12:01 10° N
Cosmos 921 Rocket 4.2 19:03:18 10° N 19:06:55 23° ENE 19:10:28 10° ESE
BREEZE-M DEB (TANK) 1.3 19:04:43 10° WNW 19:07:10 63° SSW 19:09:08 10° SE
SPOT 3 Rocket 3.6 19:02:36 10° SSE 19:07:41 59° ENE 19:12:49 10° N
Ariane Rocket 4.5 19:02:54 10° S 19:07:45 43° W 19:12:37 10° NNW
COSMOS 2428 3.9 19:07:49 10° N 19:12:15 23° NE 19:16:20 11° E
Cosmos 1461 3.0 19:09:10 10° SW 19:13:11 78° NW 19:17:25 10° NNE
BREEZE-M DEB (TANK) 1.9 19:11:18 10° SW 19:13:42 46° SSE 19:15:07 16° ENE
SL-8 Rocket 4.0 19:07:45 10° S 19:13:56 87° E 19:20:12 10° N
Cosmos 2058 3.3 19:11:05 10° N 19:15:05 42° ENE 19:19:02 10° SSE
Cosmos 2333 Rocket 3.9 19:12:17 10° N 19:15:25 15° NE 19:18:02 11° ENE
Cosmos 2056 Rocket 3.5 19:10:10 10° NNW 19:15:33 88° ENE 19:20:48 10° SSE
RESURS DK-1 3.1 19:15:25 10° N 19:19:13 34° ENE 19:23:00 10° ESE
Cosmos 2360 Rocket 2.4 19:14:07 10° NNW 19:19:37 49° ENE 19:25:05 10° SE
COSMO-SKYMED 1 2.5 19:15:39 10° NNE 19:20:00 73° E 19:24:20 10° S
Cosmos 1626 2.1 19:16:36 10° N 19:20:20 63° E 19:24:02 10° SSE
NOAA 12 4.1 19:17:52 10° SSE 19:23:05 62° ENE 19:28:20 10° N
deb Kosmos-1763 4.5 19:19:43 10° SSW 19:23:32 70° WNW 19:27:22 10° NNE
Meteor 2-1 Rocket 4.5 19:19:07 10° SSE 19:24:38 50° E 19:30:17 10° NNE
Cosmos 2322 Rocket 2.7 19:20:14 10° NNW 19:25:48 65° WSW 19:31:20 10° SSE
SL-24 R/B - RUBIN 2 4.1 19:22:18 10° NNW 19:27:07 45° NE 19:30:52 14° ESE
EO 1 Del DPAF 3.7 19:24:42 10° N 19:28:33 67° WNW 19:32:21 10° SSW
Lacrosse 5 rocket 3.2 19:25:01 10° W 19:28:51 27° NNW 19:32:34 10° NNE
SL-8 R/B 4.3 19:26:57 10° SSW 19:31:26 39° SE 19:34:26 19° E
SJ-6B 3.8 19:30:52 18° ESE 19:32:35 24° ENE 19:35:40 10° NNE
Meteor 1-11 4.5 19:27:04 10° NNW 19:32:53 79° W 19:38:36 10° S
Cosmos 1452 Rocket 3.6 19:28:18 10° NNW 19:33:27 52° ENE 19:38:33 10° SE
BREEZE-M DEB (TANK) 3.8 19:29:34 10° WNW 19:33:37 77° NNE 19:47:49 13° ESE
Cosmos 2218 Rocket 4.1 19:27:54 10° S 19:34:03 79° W 19:40:14 10° N
Aureole 1 Rocket 4.0 19:27:33 10° SSW 19:34:18 75° WNW 19:39:23 10° NNE
USA 267 3.8 19:37:01 15° ENE 19:41:56 37° SE 19:47:53 10° SSW
DELTA 2 R/B (1) 3.9 19:37:36 10° W 19:43:04 57° S 19:46:42 21° ESE
Atlas Centaur 2 3.8 19:39:48 10° SW 19:43:32 20° S 19:47:12 12° SE
Cosmos 1727 Rocket 4.1 19:38:05 10° N 19:44:29 86° W 19:50:49 10° S
Cosmos 2322 3.7 19:39:33 10° NNW 19:45:16 63° ENE 19:50:55 10° SE
YAOGAN 1 4.5 19:42:31 10° SSW 19:46:25 33° W 19:50:21 10° NNW
ALOS 2.3 19:44:24 10° SSE 19:49:03 83° WSW 19:53:46 10° NNW
Abrixas rocket 2.7 19:46:39 10° W 19:49:52 52° NNW 19:51:14 29° NE
Gbstr 26 Del rocket 4.2 19:45:09 10° NW 19:49:55 43° NNE 19:53:04 24° ENE
GP-B 4.0 19:46:29 10° N 19:50:49 51° W 19:55:06 10° SSW
Cosmos 1703 3.5 19:46:57 10° NNW 19:50:52 71° W 19:54:46 10° S
CZ-4 R/B 4.5 19:49:48 10° SW 19:52:52 19° W 19:55:56 10° NW
FENGYUN 3A 3.8 19:51:16 10° S 19:56:40 77° WSW 20:02:06 10° NNW
CZ-4C R/B 3.1 19:54:03 10° SSE 19:57:35 24° ESE 19:57:35 24° ESE
Tiangong 1 3.8 19:58:30 10° SW 19:58:56 10° SSW 19:59:20 10° SSW
Cosmos 1400 Rocket 4.0 19:56:27 10° NNW 20:00:21 44° W 20:04:09 10° SSW
Cosmos 2123 Rocket 4.4 19:57:12 10° N 20:02:57 38° ENE 20:05:32 27° ESE
BREEZE-M DEB (TANK) 4.1 19:47:26 10° WNW 20:09:04 71° NNE 20:11:54 33° E
Cosmos 2219 Rocket 2.7 20:05:01 10° N 20:10:11 36° NE 20:11:02 34° ENE
Thor Agena Rocket 3.4 20:06:46 10° NNE 20:11:55 89° ESE 20:16:59 10° SSW
Cosmos 1908 3.4 20:10:29 10° SSW 20:14:24 73° W 20:18:19 10° N
Cosmos 1048 Rocket 4.0 20:11:08 10° S 20:16:07 54° ESE 20:19:09 23° NE
USA 234 3.9 20:15:23 29° ENE 20:18:00 40° NNE 20:24:02 10° NW
Cosmos 2333 4.2 20:15:04 10° NNW 20:20:45 64° ENE 20:22:46 40° SE
Cosmos 1420 Rocket 4.0 20:15:28 10° NNW 20:20:49 83° WSW 20:24:47 18° SSE
Cosmos 2237 4.2 20:15:14 10° NNW 20:21:00 85° WSW 20:25:03 20° SSE
Iridium 4 Rocket 3.7 20:15:49 10° S 20:21:14 83° W 20:27:05 10° N
H-2A R/B 3.0 20:18:13 13° S 20:21:37 67° WSW 20:25:32 10° NNW
Envisat 3.3 20:26:29 45° ENE 20:26:29 45° ENE 20:30:58 10° N
GENESIS II 4.2 20:22:21 10° SW 20:26:20 79° NW 20:26:52 64° NNE
Resurs 01 Rocket 2.3 20:27:35 39° NNE 20:27:35 39° NNE 20:30:44 10° N
Cosmos 44 4.3 20:24:08 10° SSW 20:26:23 27° S 20:26:23 27° S
FREGAT/IRIS 4.2 20:28:22 28° SW 20:29:15 35° W 20:32:03 10° NNW
Cosmos 2221 3.2 20:31:03 10° SSW 20:35:16 54° WNW 20:39:32 10° N
CZ-2D R/B 4.2 20:37:04 39° N 20:37:04 39° N 20:39:36 10° N
Cosmos 2237 Rocket 3.1 20:33:15 10° N 20:37:30 32° NE 20:37:30 32° NE
Cosmos 44 Rocket 4.1 20:34:35 10° SSW 20:37:31 36° S 20:37:31 36° S
In-Cosmos 22 Rocket 4.2 20:34:45 10° N 20:40:21 59° ENE 20:40:21 59° ENE
SL-16 R/B 4.0 20:42:16 10° N 20:44:37 17° NNE 20:44:37 17° NNE
Cosmos 158 Rocket 4.3 20:44:26 10° SSW 20:49:25 64° WNW 20:54:35 10° NNE
Cosmos 1269 Rocket 4.0 20:51:17 10° SSW 20:56:33 78° WNW 20:57:37 57° N
COSMOS 2428 3.0 20:51:22 10° NNW 20:57:00 65° WSW 20:58:23 49° SSW
Cosmos 2333 Rocket 2.3 20:54:59 10° NNW 21:00:04 65° NNE 21:00:04 65° NNE
Cosmos 1980 4.4 20:55:49 10° NNW 20:59:52 41° NNE 20:59:52 41° NNE
Cosmos 2098 Rocket 4.4 20:59:02 10° SSW 21:03:02 42° WNW 21:08:08 10° N
Cosmos 2360 Rocket 4.2 20:58:43 10° NW 21:03:17 26° WSW 21:07:50 10° SSW
Lacrosse 5 rocket 4.0 21:07:06 10° NW 21:09:05 14° N 21:09:05 14° N
Cosmos 2219 3.3 21:03:51 10° SSW 21:09:36 75° WNW 21:09:45 74° NW
NOSS 0 Rocket 4.0 21:11:14 10° NNW 21:16:35 68° NNW 21:16:35 68° NNW
MOS 1-B Rocket 4.5 21:16:03 41° SSW 21:17:36 53° W 21:23:24 10° NNW
BREEZE-M DEB (TANK) 3.8 21:13:49 10° WNW 21:19:03 44° WNW 21:19:03 44° WNW
USA 267 3.4 21:24:25 63° N 21:25:12 70° NW 21:31:41 10° WSW
CZ-3A R/B 3.9 21:07:05 10° WNW 21:26:12 68° NNE 21:27:06 63° ENE
Atlas Centaur 2 4.3 21:27:47 10° SW 21:29:50 16° SSW 21:29:50 16° SSW
CZ-4C R/B 4.0 21:41:01 10° SW 21:42:52 22° WSW 21:42:52 22° WSW
Cosmos 2219 Rocket 3.7 21:49:03 10° NW 21:52:46 31° WNW 21:52:46 31° WNW
USA 234 4.0 22:02:44 48° WNW 22:02:44 48° WNW 22:07:16 10° NW
Cosmos 2237 Rocket 4.4 22:17:15 10° NW 22:19:21 22° NW 22:19:21 22° NW
